Regional Weather Roundup
Issued by NWS Jackson, KY

Home | Current Version | Previous Version | Text Only | Print | Product List | Glossary On
Versions: 1 2 3 4 5 6 7 8 9 10 11 12 13 14 15 16 17 18 19 20 21 22 23 24 25 26 27 28
000
ASUS43 KJKL 190410
RWRJKL

EAST KENTUCKY HOURLY WEATHER ROUNDUP
NATIONAL WEATHER SERVICE JACKSON KY
1100 PM EST THU JAN 18 2018

NOTE: "FAIR" INDICATES FEW OR NO CLOUDS BELOW 12,000 FEET WITH
NO SIGNIFICANT WEATHER AND/OR OBSTRUCTIONS TO VISIBILITY.

* THESE REPORTS ARE NOT UNDER NWS QUALITY CONTROL AND MAY NOT
  REPORT WEATHER SUCH AS PRECIPITATION AND FOG.

KYZ079-080-083-085-087-088-110-112-115-119-120-190500
...EASTERN KENTUCKY...

CITY           SKY/WX    TMP DP  RH WIND       PRES   REMARKS
JACKSON          N/A     24  12  60 SW3       30.28S
LONDON           N/A     19  12  74 CALM      30.31S
SOMERSET*        N/A     19  14  79 CALM      30.34F
MONTICELLO*      N/A     11   7  84 W9        30.35R WCI  -2
WILLIAMSBURG*    N/A     23  14  68 CALM      30.32S
MIDDLESBORO*     N/A     18  16  90 CALM      30.36R
HARLAN APT*      N/A     21  16  79 CALM      30.32R
PIKE CO APT*     N/A     28  11  49 S3        30.29R
BIG SANDY APT*   N/A     28  11  50 SW5       30.30S WCI  22
MOREHEAD APT*    N/A     23   9  54 SW12      30.29F WCI  12
ASHLAND*         N/A     15  12  88 CALM      30.30F
$$

KYZ035-036-041-042-044-050-067-078-099-190500
...CENTRAL KENTUCKY...

CITY           SKY/WX    TMP DP  RH WIND       PRES   REMARKS
MT STERLING*     N/A     23  14  68 SW10      30.29F WCI  12
FLEMING/MASON*   N/A     20  10  66 SW8       30.28R WCI  10
DANVILLE*        N/A     23  12  63 SW6       30.31S WCI  16
LEXINGTON        N/A     21   9  59 S9        30.28S WCI  11
FRANKFORT        N/A     23  10  57 SW12      30.27S WCI  12
LOUISVILLE       N/A     27  13  55 S8        30.28F WCI  19
LEBANON*         N/A     25  12  58 S12       30.30S WCI  14
GLASGOW*         N/A     21  13  70 CALM      30.32S
BOWLING GREEN    N/A     23  14  68 S3        30.33F
$$

KYZ091>093-OHZ055-061-077-WVZ005-015-034-035-042-190500
...SOUTHERN OHIO/WEST VIRGINIA...

CITY           SKY/WX    TMP DP  RH WIND       PRES   REMARKS
COVINGTON        N/A     24  14  65 SW9       30.21S WCI  14
COLUMBUS         N/A     23  11  60 S8        30.19S WCI  14
DAYTON           N/A     24  13  62 SW16G23   30.15F WCI  11
WILMINGTON       N/A     21  12  68 SW15      30.19S WCI   8
HUNTINGTON       N/A     26  10  50 S9        30.28F WCI  17
CHARLESTON       N/A     22  13  68 S6        30.29S WCI  14
BECKLEY          N/A     22   9  57 SW8       30.23R WCI  12
BLUEFIELD        N/A     21   6  52 W10       30.22S WCI  10
LOGAN CO APT*    N/A     27  10  50 CALM      30.28R
$$

VAZ002-007-008-TNZ017-027-036-066-071-190500
...SOUTHWEST VIRGINIA/EAST TENNESSEE...

CITY           SKY/WX    TMP DP  RH WIND       PRES   REMARKS
WISE*            N/A     23  12  63 CALM      30.26R
JONESVILLE*      N/A     16  14  93 CALM      30.36F
ABINGDON*        N/A     19  12  74 CALM      30.32S
BRISTOL          N/A     17  12  80 CALM      30.35S
MORRISTOWN*    CLEAR     19  14  79 CALM      30.34S
SEVIERVILLE*   CLEAR     18  14  86 CALM      30.36F
KNOXVILLE        N/A     23  13  65 CALM      30.34F
LAFOLLETTE*    CLEAR     18  16  93 CALM      30.37F
OAK RIDGE        N/A     21  15  78 CALM      30.36S
CROSSVILLE       N/A     20  10  65 CALM      30.30R
NASHVILLE        N/A     23  15  71 S6        30.35F WCI  16
$$

...KEY TO REMARKS...
VSB - VISIBILITY IN MILES
WCI - WIND CHILL INDEX
HX  - HEAT INDEX

$$




USA.gov is the U.S. government's official web portal to all federal, state and local government web resources and services.